Regional Weather Roundup
Issued by NWS Kansas City/Pleasant Hill, MO

Home | Current Version | Previous Version | Graphics & Text | Print | Product List | Glossary Off
Versions: 1 2 3 4 5 6 7 8 9 10 11 12 13 14 15 16 17 18 19 20 21 22 23 24 25 26 27

000
ASUS43 KEAX 012010
RWREAX

WEATHER ROUNDUP FOR EASTERN KANSAS AND NORTHWEST MISSOURI
NATIONAL WEATHER SERVICE KANSAS CITY/PLEASANT HILL MO
200 PM CST THU DEC 01 2016

KSZ040-057-103>105-MOZ028-029-037-043-012100-
...KANSAS CITY METROPOLITAN AREA...

CITY           SKY/WX    TMP DP  RH WIND       PRES   REMARKS
K.C. INTL      PTSUNNY   42  24  49 W9        30.02F
K.C. DOWNTOWN  SUNNY     43  25  49 NW8       30.03F
LEES SUMMIT    SUNNY     43  25  49 W10       30.03F
OLATHE - IXD   SUNNY     44  23  43 W14       30.03F
OLATHE - OJC   SUNNY     43  23  45 W9G16     30.03F
LAWRENCE       SUNNY     44  26  49 W10       30.04F

$$

MOZ001>008-011>017-020>025-030>033-038>040-044>046-053-054-012100-
...NORTHERN AND CENTRAL MISSOURI...

CITY           SKY/WX    TMP DP  RH WIND       PRES   REMARKS
ST. JOSEPH     SUNNY     41  25  53 W7        30.03S
MOSBY          CLEAR     43  27  52 W8        30.04S
WARRENSBURG    SUNNY     45  27  49 W10G16    30.03F
WHITEMAN AFB   PTSUNNY   44  26  49 W8        30.02F
CLINTON        SUNNY     43  27  52 SW9       30.05F
SEDALIA        SUNNY     45  27  49 W8        30.05F
WARSAW         NOT AVBL
CHILLICOTHE      N/A     41  27  57 VRB6      30.03F
KIRKSVILLE     CLOUDY    38  27  64 W9        30.00S WCI  31

$$

MOZ041-047>049-056>058-063>065-088>090-097-012100-
...EASTERN AND SOUTHERN MISSOURI...

CITY           SKY/WX    TMP DP  RH WIND       PRES   REMARKS
ST. LOUIS INTL MOSUNNY   47  26  44 W13       30.02F
SPIRIT OF STL  MOSUNNY   45  27  49 W12       30.02S
COLUMBIA       SUNNY     43  26  51 W14       30.03S
JEFFERSON CITY SUNNY     45  26  47 W12       30.04F
ROLLA          SUNNY     44  26  49 W13       30.01F
OSAGE BEACH    SUNNY     46  24  42 W13       30.04F
SPRINGFIELD    SUNNY     49  24  37 W7        30.04F
BRANSON        MOSUNNY   50  21  32 W7        30.06F
JOPLIN         SUNNY     49  25  39 SW8       30.06F
WEST PLAINS    SUNNY     51  23  33 W10       30.05F

$$

IAZ060-094-KSZ022-034>040-054-083-096-NEZ052-066-093-012100-
...KANSAS...SOUTHEAST NEBRASKA AND IOWA...

CITY           SKY/WX    TMP DP  RH WIND       PRES   REMARKS
TOPEKA         SUNNY     45  25  45 W8        30.03F
MANHATTAN      SUNNY     46  25  43 W6        30.02F
EMPORIA        SUNNY     47  23  38 CALM      30.02F
CHANUTE        MOSUNNY   50  25  37 VRB5      30.04F
WICHITA        MOSUNNY   52  21  29 NE3       29.99F
OMAHA          CLOUDY    37  26  64 SW6       30.01R WCI  32
LINCOLN        SUNNY     42  24  49 VRB5      30.00F
FALLS CITY     SUNNY     41  26  55 W7        30.01F
LAMONI         CLOUDY    37  27  67 W14       29.99R WCI  28
DES MOINES     CLOUDY    38  29  70 NW13      29.97S WCI  30

$$





USA.gov is the U.S. government's official web portal to all federal, state and local government web resources and services.